GFSSE_850_thetae_057.txt.gz
Theta_e
335 333 333 333 331 332 333 334 332 324 317 312 311 312 316 317 316 316 317 319 320 332 331 330 328 327 323 319 319 315 312 315 318 320 324 327 329 331 331 332 332 333 334
336 333 333 331 330 331 333 334 332 325 318 313 310 312 315 315 315 314 314 316 328 331 330 329 326 323 316 316 315 314 312 312 316 319 315 314 314 315 315 317 320 323 327
339 337 333 331 329 331 334 333 329 325 320 315 313 311 310 310 311 312 312 313 328 329 326 324 315 314 312 312 310 310 310 315 322 324 324 320 312 310 309 309 310 312 314
340 339 334 331 330 330 332 332 328 321 321 321 320 319 317 314 310 309 309 311 328 328 325 315 312 311 309 310 309 309 309 317 325 326 326 325 323 320 314 310 310 310 310
339 339 336 331 330 331 329 330 327 321 322 324 324 324 322 321 317 313 309 308 324 325 316 310 310 307 308 309 308 308 312 323 324 324 323 325 323 320 316 314 313 314 317
339 339 333 331 330 332 327 328 328 323 322 325 325 324 323 322 322 319 314 309 307 307 308 307 306 307 307 307 307 308 319 324 324 324 322 322 323 324 324 323 323 323 323
338 339 331 331 330 331 328 328 327 326 323 324 325 325 323 324 324 322 318 312 308 307 306 305 305 306 306 306 306 308 321 324 325 324 324 327 327 327 325 325 323 322 322
338 338 331 332 331 330 329 328 329 329 327 324 326 325 324 324 323 319 319 316 312 309 307 305 304 304 304 304 305 307 321 322 324 322 324 323 323 322 322 321 320 320 320
338 338 336 332 332 330 330 329 329 330 329 328 326 326 325 324 325 321 318 317 316 315 314 311 308 306 305 304 304 306 312 318 318 319 319 319 320 321 322 319 319 318 316
337 339 340 338 332 331 330 330 329 329 328 329 328 327 326 325 326 324 321 320 319 318 318 317 316 315 314 313 310 308 315 319 320 320 320 320 319 318 319 319 317 315 309
336 337 338 339 334 336 333 331 329 329 330 330 329 328 327 326 326 325 325 323 322 320 319 319 318 318 317 316 315 317 317 321 322 321 322 319 318 319 320 317 315 311 309
334 337 336 337 339 339 339 332 330 330 330 330 329 329 328 327 326 325 324 324 323 322 321 320 319 318 317 317 317 317 316 318 319 319 318 318 321 319 317 315 310 308 307
330 332 332 333 334 334 335 334 332 332 331 331 330 330 332 330 327 327 324 324 323 323 322 321 320 319 318 318 318 317 315 315 317 317 318 318 318 316 316 312 310 308 303
333 329 330 329 333 333 334 332 332 333 331 331 331 331 331 330 327 326 326 325 324 323 323 322 321 320 319 319 318 317 315 313 315 315 316 315 315 313 314 314 309 304 303
333 333 323 327 332 332 331 330 331 334 331 331 331 331 331 330 327 325 325 325 324 324 322 322 322 321 320 319 319 316 314 313 312 312 312 309 310 313 312 309 307 306 303
333 333 322 323 327 330 329 330 331 331 332 331 330 330 331 330 329 326 325 324 324 326 323 322 322 321 320 319 318 314 314 312 310 308 307 304 307 308 302 304 306 305 304
332 331 329 321 324 327 329 330 330 329 329 329 330 331 330 330 330 327 326 326 325 326 326 324 322 321 319 317 316 313 312 310 306 304 302 300 299 297 296 296 299 300 303
329 326 327 321 321 324 327 329 329 329 329 331 331 328 328 328 330 328 328 329 328 327 326 324 322 321 319 317 315 311 309 306 304 302 300 299 297 295 294 294 293 295 299
323 323 322 319 320 322 323 325 325 326 327 329 330 330 326 328 328 328 329 329 328 328 326 324 322 320 320 317 315 311 306 304 302 300 299 298 296 295 294 293 292 292 292
318 320 319 319 319 320 321 321 321 321 322 323 328 330 327 326 325 326 327 328 329 328 326 324 322 319 319 317 315 310 304 302 300 299 298 296 294 294 293 293 292 292 291
315 316 317 318 317 318 318 317 316 314 314 314 316 323 326 325 325 324 325 326 329 329 324 324 321 319 318 317 315 308 302 300 299 298 297 295 294 293 292 292 292 291 291
315 315 315 316 316 316 315 315 314 313 313 313 312 312 314 318 322 323 325 324 324 328 327 325 322 321 317 317 316 309 299 298 298 298 296 294 293 292 292 291 291 291 290
317 317 316 315 315 315 315 314 314 313 313 312 312 312 312 314 320 319 325 324 324 326 327 325 323 321 320 317 316 313 300 299 297 297 296 294 292 291 291 291 290 290 290
316 316 316 315 314 314 314 314 314 314 313 313 312 312 312 316 319 323 322 323 324 325 327 324 324 322 319 319 314 309 304 302 298 296 295 294 292 291 290 290 290 289 289
315 315 315 314 314 314 314 314 314 313 313 312 311 312 312 318 319 319 323 323 325 325 324 324 323 321 319 318 316 314 306 302 300 298 294 294 293 291 290 290 290 289 289
314 315 315 314 314 314 313 313 313 313 312 311 311 312 312 316 319 321 321 323 325 324 323 323 323 321 320 319 317 316 313 303 300 297 296 294 293 291 289 290 289 289 289

GFSSE_850_thetae_060.txt.gz
Theta_e
332 332 332 332 332 331 332 331 324 317 312 311 313 316 316 316 316 317 320 333 334 333 331 328 323 316 316 314 311 314 316 318 319 322 325 327 329 329 329 330 329 332 332
332 333 333 332 332 333 332 329 327 317 312 311 312 314 314 314 314 314 323 333 331 330 327 317 313 313 312 311 311 312 316 320 316 313 312 313 313 314 315 317 318 322 320
331 333 332 331 331 333 333 331 326 319 314 311 310 310 311 311 312 313 323 331 330 328 318 313 311 311 310 309 311 318 324 325 325 320 313 314 317 319 317 316 318 320 320
334 334 333 329 330 333 333 329 326 321 319 319 317 315 311 309 309 311 324 330 326 321 312 311 309 309 309 309 313 321 325 326 325 320 316 318 322 324 321 317 320 317 318
338 337 333 330 330 331 332 330 326 321 323 324 323 321 319 316 311 308 321 326 321 310 309 308 307 308 308 309 316 322 323 321 317 315 316 318 324 327 323 323 323 324 325
337 335 333 330 330 331 330 330 324 320 323 325 324 322 322 322 318 312 310 311 308 308 307 307 307 307 307 310 322 323 324 323 322 324 326 327 326 326 324 322 324 324 323
337 337 332 330 330 331 327 329 326 321 322 325 324 323 322 324 322 318 312 309 307 306 306 306 306 306 306 313 322 323 323 324 325 327 326 327 326 325 321 321 321 320 318
337 337 332 331 330 331 327 329 327 325 323 325 325 324 323 323 321 318 316 313 310 308 306 305 305 305 306 314 321 323 324 324 324 324 324 324 322 320 320 317 315 316 314
336 337 331 331 331 331 328 329 328 329 326 325 326 325 324 324 322 318 316 316 315 313 311 308 305 304 305 309 318 321 321 321 318 320 318 319 320 319 319 318 311 309 307
336 336 331 331 331 330 329 329 329 329 329 328 326 326 325 324 324 321 319 319 318 317 316 314 312 310 308 307 309 312 314 314 319 319 319 319 320 319 317 309 310 307 305
337 335 335 332 332 331 330 330 329 329 329 329 328 327 326 325 324 324 323 321 320 319 318 317 316 315 313 311 315 317 319 321 321 320 318 321 321 318 314 311 308 305 303
336 335 335 334 334 332 332 330 329 329 330 330 329 328 327 326 325 325 324 323 323 321 320 319 318 317 316 316 317 317 319 321 319 318 320 321 319 317 316 312 308 304 302
336 335 336 335 335 334 334 334 331 331 330 330 329 328 328 327 327 325 324 324 323 322 322 320 319 318 317 317 317 315 317 318 317 318 320 319 317 315 315 310 307 305 304
328 331 335 336 335 335 334 335 333 331 331 331 330 330 329 329 328 326 326 324 322 322 322 321 321 319 319 318 317 315 316 317 317 318 317 316 314 313 313 309 308 307 306
328 324 325 330 334 334 336 334 333 334 332 331 332 331 330 330 329 326 325 325 323 322 322 322 321 321 320 319 318 316 314 315 316 316 315 314 314 313 310 309 308 307 305
330 329 325 323 325 330 333 337 332 331 332 331 331 331 331 331 330 328 325 324 323 324 322 322 321 322 320 320 319 316 313 313 313 314 313 311 312 309 308 308 307 306 305
328 331 331 324 323 328 335 330 332 326 333 333 332 331 331 331 331 330 327 325 324 323 323 323 322 321 320 319 319 316 313 312 312 312 310 308 309 302 302 305 305 305 304
329 331 332 326 321 322 326 326 325 325 325 326 331 332 331 331 330 330 330 327 325 324 324 324 324 322 321 318 317 315 312 311 308 308 304 304 302 298 296 296 301 302 302
324 328 329 324 319 319 324 325 326 328 328 327 325 327 328 330 330 330 329 328 326 326 326 326 324 322 321 318 318 314 311 309 305 303 302 300 298 296 295 294 293 295 298
320 323 325 326 320 320 322 324 326 328 327 328 328 327 330 328 328 328 329 329 328 327 328 327 325 323 320 319 317 315 310 306 304 301 299 298 297 295 294 293 292 292 291
317 319 321 324 321 320 320 321 323 323 322 322 323 327 329 328 327 326 327 328 327 326 328 325 324 323 320 317 316 314 310 304 301 300 298 297 296 294 293 292 292 291 291
316 316 320 322 319 318 319 318 320 320 319 319 319 317 320 328 330 327 326 325 324 325 325 326 326 323 320 319 315 315 309 303 300 298 297 297 295 294 292 292 291 291 291
317 316 315 316 316 317 318 319 320 320 319 318 315 314 314 317 321 323 326 325 324 321 324 325 324 325 322 320 317 316 309 307 303 299 298 297 296 294 292 291 291 291 291
318 317 316 315 316 316 316 317 317 316 315 315 314 314 313 312 315 318 319 323 324 323 325 324 323 326 324 322 316 313 314 314 303 298 297 296 296 294 292 291 290 290 290
317 317 316 315 314 314 314 315 315 315 315 314 314 314 313 312 312 312 317 322 322 322 324 324 325 325 324 322 320 320 314 312 308 302 298 297 295 294 293 291 290 290 290
316 316 315 315 314 314 313 313 314 314 314 314 314 313 313 312 312 312 317 323 322 321 324 324 325 324 324 322 320 318 316 317 311 306 300 297 296 294 293 292 290 290 289

GFSSE_850_thetae_063.txt.gz
Theta_e
330 329 331 332 331 331 333 326 317 312 311 314 316 316 317 317 321 331 335 335 333 330 325 318 314 313 312 315 317 317 318 322 326 329 330 330 329 328 327 327 329 329 327
331 331 332 331 331 331 331 328 318 312 311 314 314 314 314 315 320 332 333 332 330 325 313 312 311 311 314 317 321 323 317 313 313 314 314 314 315 316 319 320 322 325 322
332 332 332 331 332 332 330 327 319 314 311 310 310 311 312 314 322 331 332 330 325 314 312 310 310 310 317 325 326 325 326 317 310 310 310 313 321 323 325 326 327 327 323
332 333 332 331 332 333 330 326 320 319 318 316 314 311 309 311 316 327 329 326 316 312 310 309 309 310 319 325 326 325 324 321 314 314 313 317 328 327 325 328 326 325 326
333 333 330 330 331 332 330 328 320 322 324 323 321 319 316 310 314 326 322 314 310 309 307 308 309 312 318 322 323 323 319 315 317 318 319 323 327 325 323 325 324 325 324
335 334 331 329 330 331 331 327 319 321 325 323 321 320 321 317 312 312 312 309 308 307 307 308 308 313 319 323 325 325 319 322 326 326 327 327 324 325 324 323 322 321 318
337 335 332 329 330 329 330 328 321 320 323 324 322 321 322 321 318 314 311 308 307 306 306 307 307 312 318 323 324 322 324 325 326 326 326 325 323 322 322 320 316 314 312
336 335 332 330 331 329 328 329 326 321 323 324 324 322 322 322 318 316 313 310 308 307 306 305 306 310 317 322 323 323 324 325 324 324 324 323 321 320 316 315 313 313 311
335 335 333 330 330 330 327 329 327 326 323 325 325 323 323 323 319 316 315 314 313 311 307 305 305 308 315 319 321 322 322 323 322 322 321 320 319 318 314 311 308 308 306
335 335 334 330 330 331 328 329 328 328 327 325 325 325 324 323 321 319 318 317 317 315 313 309 306 306 310 315 317 318 318 315 317 315 318 321 319 314 315 314 310 306 304
334 334 333 331 331 331 329 329 328 329 328 328 326 326 325 324 324 323 321 320 319 318 316 314 313 311 310 310 312 315 317 319 319 319 320 320 318 317 314 312 308 305 304
334 334 333 331 331 331 330 329 329 329 328 328 328 326 326 325 324 325 324 323 321 320 318 317 315 314 314 316 316 317 319 319 318 322 322 319 317 317 315 310 310 308 306
335 335 334 334 332 331 331 330 329 329 328 328 328 328 326 326 325 325 324 324 323 322 320 318 317 316 316 316 316 316 320 318 317 321 321 319 316 316 313 310 309 307 307
334 335 334 333 333 333 331 331 330 330 329 329 329 329 328 326 326 326 325 324 323 322 322 321 320 319 317 317 317 315 318 317 320 319 318 316 313 313 314 312 310 307 306
333 333 333 330 332 333 332 332 332 332 331 330 330 330 328 328 328 326 325 325 324 321 322 321 322 321 319 318 317 315 317 316 317 317 315 314 313 312 313 311 309 308 306
322 330 333 329 331 332 332 333 332 332 331 331 331 331 331 330 329 329 326 325 324 322 322 321 321 321 320 319 318 317 314 314 316 315 314 315 312 312 311 309 309 308 306
320 319 321 327 329 332 333 332 333 332 332 332 331 331 332 331 331 331 329 326 324 323 322 321 321 321 320 320 319 318 315 313 313 314 313 312 311 309 308 307 307 306 305
322 323 322 324 325 324 330 331 328 334 332 331 332 332 332 332 331 332 330 329 325 324 323 322 322 321 321 321 319 318 316 313 312 311 312 311 310 306 300 304 305 304 304
319 323 324 324 325 327 325 323 333 334 332 330 329 331 331 332 331 330 330 330 329 325 324 322 323 322 322 321 320 317 315 312 311 311 311 309 309 308 299 297 298 301 301
317 321 325 325 325 328 329 325 326 327 326 327 327 327 328 329 329 329 330 330 330 328 324 323 323 323 321 321 320 317 313 311 309 308 308 306 305 302 297 295 294 294 294
317 318 322 325 325 327 328 325 326 325 324 324 325 326 326 326 324 326 328 330 329 329 328 325 324 324 322 319 318 314 311 308 306 304 303 302 300 298 296 294 293 292 292
317 316 317 320 323 323 324 322 323 322 322 323 324 326 327 327 324 327 328 329 330 328 329 327 325 324 319 321 317 315 308 306 308 303 300 299 299 297 296 294 293 292 291
317 317 317 316 317 320 321 323 324 323 323 324 324 324 324 326 324 327 327 327 325 329 328 327 325 326 323 321 317 317 310 310 309 306 303 299 297 297 296 294 293 292 291
317 318 318 317 316 317 320 322 322 321 320 319 321 321 321 322 323 325 326 326 328 325 326 326 326 323 324 321 318 318 317 316 312 303 301 301 298 296 296 294 293 292 291
317 318 318 317 316 316 317 319 320 320 319 319 320 319 319 318 317 318 322 326 324 324 323 325 325 323 322 322 322 320 315 317 312 310 308 304 299 299 296 295 293 292 291
317 316 317 316 316 315 315 316 316 316 316 316 316 315 315 314 314 314 316 320 324 323 322 325 325 322 323 323 323 322 320 319 317 313 312 307 304 300 297 296 293 292 291

GFSSE_850_thetae_069.txt.gz
Theta_e
329 328 332 331 333 321 314 313 312 314 316 317 318 320 329 331 333 333 332 327 314 317 327 330 325 319 318 325 330 331 331 331 331 331 331 329 327 326 325 324 321 320 317
326 331 333 333 335 324 315 313 313 314 315 316 316 322 332 333 332 333 331 321 313 316 326 326 329 327 314 315 318 319 321 322 324 324 322 323 323 319 323 324 325 325 325
329 331 332 332 332 321 317 313 311 311 313 313 314 320 331 331 331 330 324 314 310 312 321 320 317 319 318 313 310 310 311 312 313 315 315 325 328 328 327 327 328 328 328
329 331 331 331 332 322 318 317 315 313 311 310 312 319 327 330 327 324 317 311 309 313 320 321 318 325 320 318 315 311 311 313 314 320 323 327 327 328 327 328 326 326 325
329 331 331 332 330 324 318 321 322 321 318 315 311 313 326 323 317 314 310 309 308 310 324 315 315 319 316 316 314 314 314 317 324 325 327 326 326 325 324 325 324 324 322
331 331 331 331 331 327 318 321 324 322 319 317 316 313 323 316 314 312 308 308 307 309 315 311 314 317 318 315 315 320 325 324 325 324 323 324 323 323 323 323 321 319 322
332 331 330 330 332 329 321 318 321 323 321 320 319 317 318 317 314 311 308 307 307 308 309 312 317 324 324 318 321 325 325 324 322 325 323 323 321 321 321 319 319 319 319
332 331 329 330 331 329 327 320 319 322 323 321 321 320 319 317 315 312 309 307 307 307 308 312 315 324 321 324 324 325 324 323 322 322 322 321 320 320 320 320 318 316 317
333 333 330 329 330 329 328 325 321 321 323 323 322 321 320 319 317 314 312 309 308 306 308 311 313 317 319 320 323 324 323 322 322 321 320 319 319 319 319 319 317 313 313
335 334 332 329 329 329 328 328 326 322 323 324 323 322 321 320 318 317 315 313 311 309 307 308 311 314 317 319 322 321 321 321 320 320 317 317 318 318 318 315 312 311 310
334 335 333 330 329 330 328 328 327 326 323 324 324 323 322 321 321 320 319 317 315 313 310 308 308 310 313 318 321 320 321 321 320 318 318 317 317 316 314 315 311 309 307
332 333 333 332 329 329 329 327 328 327 327 325 324 324 323 322 322 322 322 320 319 316 313 311 310 311 312 313 313 314 315 316 316 318 317 316 316 315 313 313 313 310 307
331 330 331 333 331 329 330 329 328 328 328 327 326 325 324 323 323 323 323 322 321 320 319 316 315 313 313 314 316 317 318 318 318 318 317 316 315 315 315 312 311 311 309
332 330 330 330 332 330 329 329 328 328 328 328 327 326 325 325 324 324 324 323 323 322 320 320 318 317 317 317 316 316 316 318 318 317 317 317 315 314 314 313 311 310 308
332 331 330 329 329 330 329 330 329 329 329 328 328 327 326 326 325 325 324 324 323 322 321 321 320 320 320 319 318 317 315 318 319 318 317 316 314 313 313 312 312 309 308
331 332 332 331 328 326 327 330 330 330 329 329 328 328 327 327 327 326 325 324 324 323 321 321 320 320 320 320 319 319 317 316 317 317 316 316 314 312 311 312 312 310 309
321 329 333 333 332 331 330 326 326 328 328 326 328 329 329 328 327 326 326 326 325 323 321 320 320 319 319 319 319 319 318 317 316 317 316 315 314 311 311 311 311 310 309
320 323 329 333 333 332 331 328 328 329 327 328 328 329 329 329 327 327 326 326 326 326 322 322 321 321 320 319 319 319 318 317 316 315 315 315 314 311 311 311 310 308 307
318 320 322 327 330 330 330 330 328 329 330 329 327 329 329 329 328 328 327 327 326 327 327 322 321 321 320 320 319 318 318 318 317 315 315 314 313 312 311 309 308 305 302
317 318 320 322 324 328 330 331 330 330 331 330 330 326 330 330 330 329 329 328 327 328 328 327 323 321 320 318 318 318 318 318 317 316 315 314 313 311 311 310 309 307 305
316 316 317 319 321 324 326 328 329 330 331 332 331 330 328 329 329 330 327 329 328 328 325 327 327 322 320 318 317 316 316 316 318 316 315 314 313 312 311 310 310 309 307
315 315 315 316 317 320 323 324 326 327 329 330 331 331 332 326 330 330 329 329 329 327 327 326 326 324 323 318 317 315 313 315 317 318 318 316 314 311 310 310 309 309 308
316 316 316 316 316 316 318 324 326 328 329 330 330 330 330 325 330 330 329 328 328 328 328 327 325 323 325 323 319 316 314 314 317 317 318 316 315 312 310 310 310 309 307
315 315 316 316 316 316 317 320 322 324 326 325 326 327 328 328 328 329 329 328 327 327 326 328 325 324 326 325 321 320 317 317 316 315 316 316 316 312 314 309 307 306 305
315 315 316 316 315 316 317 319 320 323 323 325 327 328 328 327 328 330 328 327 327 326 326 326 325 323 322 325 323 323 320 316 311 315 314 315 315 316 313 310 306 304 301
316 316 316 316 315 315 316 318 320 321 322 323 324 325 326 326 326 326 326 329 328 325 325 325 325 324 323 323 322 323 320 318 318 313 317 315 315 315 316 311 312 309 300

GFSSE_850_thetae_072.txt.gz
Theta_e
332 330 330 329 321 315 313 312 314 316 318 320 320 330 330 332 332 331 324 314 317 328 326 323 319 322 329 331 331 331 331 330 331 331 329 327 325 323 322 320 318 317 317
329 330 331 333 322 315 312 313 314 315 316 319 331 333 333 332 331 329 321 311 320 326 329 329 314 315 318 322 323 324 323 323 323 322 320 320 327 325 323 323 326 327 328
328 331 333 332 323 317 313 311 313 313 314 318 328 329 331 330 329 321 314 310 314 320 325 319 320 311 310 310 311 312 312 314 315 315 326 328 328 329 329 329 328 326 326
329 332 332 332 328 318 315 313 311 311 313 315 318 328 330 327 323 315 311 310 315 322 323 326 324 315 314 312 310 310 311 313 322 326 327 329 329 329 328 326 325 324 323
330 331 331 331 324 318 319 319 317 313 311 313 319 330 329 319 314 310 309 309 315 324 322 321 318 313 314 313 313 315 317 325 327 326 325 326 325 324 324 324 323 322 322
330 330 332 331 326 318 321 323 321 318 315 313 325 326 321 316 313 309 308 308 323 319 317 318 315 315 314 314 320 326 323 324 324 324 324 323 322 323 323 321 318 321 322
330 330 331 332 329 321 319 322 322 320 318 317 316 325 319 316 313 309 307 307 312 311 315 321 326 320 318 323 325 325 325 325 324 324 322 321 322 322 322 320 317 318 319
331 331 330 331 331 327 319 319 321 322 321 320 319 319 318 316 314 311 309 307 308 308 310 323 324 324 324 325 324 323 322 322 322 323 321 320 321 320 318 318 319 318 318
332 331 330 330 331 329 326 320 319 322 323 322 321 320 318 317 315 312 311 309 308 308 308 310 314 317 318 321 323 324 322 321 320 318 320 319 318 319 319 318 317 317 316
332 332 330 329 330 329 328 325 322 321 322 323 322 321 319 318 317 315 314 312 310 309 308 309 311 312 314 316 317 320 320 320 318 319 316 318 318 317 318 317 315 314 313
334 334 332 329 329 329 328 328 326 323 322 323 323 322 321 320 319 319 319 317 315 312 310 309 310 312 314 316 319 319 319 319 319 317 317 316 317 317 317 316 313 311 311
335 335 334 332 329 329 329 328 327 327 325 323 323 323 322 321 321 321 320 320 319 316 314 312 311 312 313 314 315 316 316 317 317 317 316 315 316 316 316 314 315 311 309
331 333 334 332 330 329 329 329 327 327 327 326 324 324 323 322 322 322 322 321 321 320 318 316 314 314 313 314 315 316 317 316 317 317 316 315 315 315 314 314 312 313 310
329 329 332 332 332 330 329 329 329 328 328 327 326 325 324 324 323 323 323 322 322 321 320 319 317 317 317 317 317 316 316 317 317 317 316 316 315 314 314 312 313 311 310
329 329 329 328 330 331 330 329 329 329 328 328 328 327 326 325 325 324 324 323 323 322 321 320 320 320 320 320 319 318 317 316 317 317 316 316 315 313 313 313 313 311 308
327 328 330 329 329 329 329 329 329 329 329 328 328 328 327 327 326 325 325 324 324 323 321 320 320 320 319 319 319 319 319 318 316 317 317 315 315 314 312 313 313 312 310
322 327 329 330 330 330 329 327 328 329 329 329 329 329 328 328 327 326 326 326 324 324 322 321 320 319 319 319 319 318 318 318 318 317 317 316 316 315 313 311 312 312 311
322 322 326 329 330 331 331 330 329 327 326 327 328 326 327 328 327 326 325 325 324 324 324 322 321 321 320 320 319 319 318 318 318 318 317 317 316 315 314 312 312 312 310
320 321 324 326 328 330 331 332 331 330 328 328 327 326 326 326 327 325 326 325 325 325 325 325 324 322 320 320 319 319 319 318 318 318 317 317 316 315 314 313 312 311 310
318 320 321 323 326 329 332 332 332 331 330 329 330 329 329 326 327 327 327 327 326 327 326 325 326 326 324 321 320 318 317 317 318 318 317 317 316 316 315 314 312 310 310
316 317 318 319 321 325 329 331 332 331 330 329 329 330 330 330 328 326 327 327 327 325 327 327 327 326 323 324 319 320 317 317 317 316 318 318 317 315 316 315 313 311 310
315 315 316 316 317 319 322 323 326 326 327 327 328 330 331 330 330 329 326 327 328 327 326 326 325 325 327 324 323 321 314 317 318 318 317 317 318 318 316 315 314 313 311
314 315 315 315 315 316 317 321 324 326 325 325 326 327 328 330 330 328 329 326 327 328 328 327 327 327 326 325 325 320 316 315 318 318 319 318 318 317 318 316 313 312 312
314 314 315 315 314 314 316 319 320 321 322 321 322 324 326 328 330 331 331 329 326 326 327 327 326 325 326 325 326 324 322 320 316 316 317 317 317 318 317 317 315 313 311
315 314 314 315 315 315 314 316 318 320 321 322 323 324 326 327 329 330 329 327 327 327 325 324 325 325 325 327 326 325 324 321 320 313 313 314 316 316 317 317 315 314 311
314 315 315 315 315 314 314 314 316 317 319 322 323 324 325 327 328 328 327 327 326 326 326 325 325 324 324 325 325 325 324 323 320 319 317 318 316 317 316 314 316 314 315

GFSSE_850_thetae_075.txt.gz
Theta_e
334 333 328 323 317 314 312 314 317 318 319 321 330 332 333 331 329 319 312 314 314 316 317 322 327 328 331 331 330 329 329 328 327 328 326 322 319 320 320 318 315 316 317
332 330 329 320 314 312 312 313 316 317 323 330 333 334 331 330 326 316 311 313 322 331 313 315 317 318 322 323 324 321 320 319 318 319 321 323 323 327 327 329 329 329 328
329 330 330 319 316 312 312 313 314 316 326 331 332 333 329 328 320 313 310 312 323 323 329 314 310 311 312 313 313 312 312 314 320 328 329 330 330 331 328 327 326 325 326
330 332 329 330 323 315 311 311 314 316 324 330 331 331 326 322 313 310 310 319 329 330 330 324 316 312 311 310 310 311 314 323 327 328 329 332 329 328 327 325 324 325 323
330 332 331 330 326 318 315 313 311 313 329 330 331 325 320 314 309 309 310 318 323 328 329 326 315 314 312 314 319 323 326 327 325 325 326 327 325 324 324 322 323 323 323
331 330 331 328 318 320 321 319 315 313 319 326 326 318 316 312 309 308 308 315 313 317 328 318 314 314 318 325 325 324 326 325 323 323 323 322 322 323 323 321 319 322 321
330 330 330 327 320 319 322 321 319 317 315 315 319 318 316 314 310 308 308 310 309 313 321 323 316 321 325 324 323 324 323 323 322 323 321 320 322 322 321 321 320 318 319
330 331 331 330 326 318 319 320 321 320 319 318 318 318 317 315 312 310 308 308 308 313 325 324 324 325 324 324 322 322 321 321 322 321 319 321 320 318 320 319 317 316 318
330 330 330 331 329 324 319 319 321 322 321 320 320 318 317 316 314 312 310 309 309 312 323 320 321 319 322 320 323 321 320 317 316 317 317 318 318 319 318 314 313 316 316
331 331 330 330 330 329 325 321 320 321 322 322 321 320 318 317 317 316 314 312 310 309 309 311 313 314 317 318 318 320 317 317 318 317 315 318 318 318 318 315 316 315 314
331 331 329 329 329 329 328 326 323 321 322 323 322 321 320 319 318 318 316 316 313 312 310 310 311 312 314 315 316 317 317 317 317 316 316 317 317 317 315 314 314 312 312
332 332 332 329 329 329 328 328 326 325 323 322 323 322 321 320 320 320 319 319 317 315 313 312 312 313 314 314 315 315 316 316 316 316 316 315 316 316 315 313 314 312 308
334 333 333 332 329 329 329 328 327 327 326 324 323 323 322 322 321 321 321 321 320 319 317 315 314 314 314 315 315 316 316 316 316 317 315 315 314 315 314 313 312 312 311
332 333 333 333 331 329 329 329 328 327 327 327 326 325 324 323 323 322 323 322 322 322 320 319 317 317 318 318 318 318 317 316 316 316 316 315 315 314 313 313 312 310 310
328 328 330 333 332 331 329 328 328 328 328 327 327 327 326 325 324 324 324 323 323 323 322 320 319 320 320 319 319 318 318 318 317 317 316 316 315 315 314 313 311 311 308
325 326 328 329 331 332 332 331 329 328 328 328 328 327 327 327 326 325 324 324 323 323 321 321 320 320 319 319 319 318 318 318 318 317 317 317 316 315 316 315 313 312 311
322 325 327 328 327 328 328 329 329 329 328 328 328 328 328 328 327 327 326 325 324 324 323 321 320 320 319 319 319 318 318 318 318 318 318 317 317 316 316 316 315 313 311
323 323 325 327 329 329 329 329 329 327 327 326 328 328 329 328 328 326 324 324 324 323 323 322 322 321 321 320 320 319 319 319 318 318 318 318 318 317 316 316 315 314 313
320 322 324 325 327 330 330 330 330 330 330 329 327 326 326 324 324 325 325 325 324 323 323 323 323 324 323 322 321 321 320 319 318 318 318 318 318 318 318 317 316 315 314
319 320 322 324 325 326 330 331 331 332 331 331 330 328 328 328 327 325 325 326 325 325 325 324 324 324 323 324 324 322 323 323 321 320 318 318 318 318 317 316 315 315 314
316 318 319 320 320 323 326 328 331 331 331 331 330 330 329 330 328 326 326 326 326 326 325 326 326 326 327 324 324 323 323 322 322 319 320 319 318 318 317 317 316 315 314
314 314 316 317 319 319 320 322 326 327 328 328 329 329 329 329 329 328 328 327 327 325 324 327 326 326 326 326 325 324 320 322 321 321 320 320 320 318 318 318 317 316 316
313 313 314 314 315 317 318 320 323 326 327 327 325 324 324 327 329 330 328 328 327 326 327 325 325 326 326 325 328 323 319 320 321 320 320 319 319 319 318 319 318 317 316
312 312 314 314 313 314 317 318 319 320 321 320 321 321 322 325 327 328 330 329 327 328 327 327 324 326 325 326 327 325 325 324 319 319 319 320 319 319 318 318 317 317 317
314 314 313 313 314 313 313 314 316 319 319 320 322 322 323 325 326 328 329 329 327 327 325 325 325 327 326 324 324 325 323 324 323 320 313 315 319 319 318 318 316 315 316
314 315 315 313 313 313 313 313 314 316 318 320 321 323 324 325 326 326 327 327 326 325 325 324 323 324 324 325 325 326 325 324 323 322 320 319 319 318 317 317 315 315 314